Weather History for KORB - July, 2013

Change the Weather History Date:

Saturday, July 20, 2013

  Actual Average Record
Temperature  
Mean Temperature 55 °F -  
Max Temperature 68 °F 74 °F 93 °F (2012)
Min Temperature 42 °F 52 °F 41 °F (2007)
Degree Days  
Heating Degree Days 10    
Growing Degree Days 5 (Base 50)    
Moisture  
Dew Point 45 °F    
Average Humidity 68    
Maximum Humidity 93    
Minimum Humidity 43    
Precipitation  
Precipitation 0.00 in - - ()
Sea Level Pressure  
Sea Level Pressure 29.97 in    
Wind  
Wind Speed 1 mph (NW)    
Max Wind Speed 7 mph    
Max Gust Speed -    
Visibility 10 miles    
Events      
Averages and records for this station are not official NWS values.
T = Trace of Precipitation, MM = Missing Value Source: NWS Daily Summary

Daily Weather History Graph

Daily Weather History Graph

Search for Another Location

Airport or City:

Trip Planner

Search our weather history database for the weather conditions in past years. The results will help you decide how hot, cold, wet, or windy it might be!

Date:

Astronomy

Jul. 20, 2013 Rise Set
Actual Time 5:33 AM CDT 9:01 PM CDT
Civil Twilight 4:54 AM CDT 9:39 PM CDT
Nautical Twilight 4:03 AM CDT 10:30 PM CDT
Astronomical Twilight 2:55 AM CDT 11:38 PM CDT
Moon 7:04 PM CDT (7/20) 3:14 AM CDT (7/20)
Length of Visible Light 16h 45m
Length of Day
15h 28m
Waxing Gibbous, 94% of the Moon is Illuminated
Jul 20
Waxing Gibbous
Jul 22
Full
Jul 29
Last Quarter
Aug 6
New
Aug 14
First Quarter

Hourly Weather History & Observations

Time (CDT) Temp. Dew Point Humidity Pressure Visibility Wind Dir Wind Speed Gust Speed Precip Events Conditions
12:13 AM 57.2 °F 42.8 °F 59% 29.86 in 10.0 mi Calm Calm - N/A   Clear
12:33 AM 57.2 °F 44.6 °F 63% 29.87 in 10.0 mi Calm Calm - N/A   Clear
12:53 AM 53.6 °F 44.6 °F 72% 29.87 in 10.0 mi Calm Calm - N/A   Clear
1:13 AM 51.8 °F 46.4 °F 82% 29.88 in 10.0 mi Calm Calm - N/A   Clear
1:33 AM 51.8 °F 46.4 °F 82% 29.89 in 10.0 mi Calm Calm - N/A   Clear
1:53 AM 50.0 °F 44.6 °F 82% 29.89 in 10.0 mi Calm Calm - N/A   Clear
2:13 AM 50.0 °F 44.6 °F 82% 29.90 in 10.0 mi Calm Calm - N/A   Clear
2:33 AM 48.2 °F 44.6 °F 87% 29.90 in 10.0 mi Calm Calm - N/A   Clear
2:53 AM 48.2 °F 44.6 °F 87% 29.90 in 10.0 mi Calm Calm - N/A   Clear
3:13 AM 48.2 °F 44.6 °F 87% 29.90 in 10.0 mi Calm Calm - N/A   Clear
3:33 AM 46.4 °F 44.6 °F 93% 29.91 in 10.0 mi Calm Calm - N/A   Clear
3:53 AM 46.4 °F 42.8 °F 87% 29.91 in 10.0 mi Calm Calm - N/A   Clear
4:13 AM 46.4 °F 42.8 °F 87% 29.92 in 10.0 mi Calm Calm - N/A   Clear
4:33 AM 46.4 °F 42.8 °F 87% 29.93 in 10.0 mi Calm Calm - N/A   Clear
4:53 AM 44.6 °F 42.8 °F 93% 29.93 in 10.0 mi Calm Calm - N/A   Clear
5:13 AM 44.6 °F 42.8 °F 93% 29.93 in 10.0 mi Calm Calm - N/A   Clear
5:33 AM 44.6 °F 42.8 °F 93% 29.94 in 10.0 mi Calm Calm - N/A   Clear
5:53 AM 44.6 °F 42.8 °F 93% 29.95 in 10.0 mi Calm Calm - N/A   Clear
6:13 AM 42.8 °F 41.0 °F 93% 29.95 in 10.0 mi Calm Calm - N/A   Clear
6:33 AM 44.6 °F 42.8 °F 93% 29.96 in 10.0 mi Calm Calm - N/A   Clear
6:53 AM 46.4 °F 44.6 °F 93% 29.97 in 10.0 mi Calm Calm - N/A   Clear
7:13 AM 48.2 °F 46.4 °F 93% 29.97 in 10.0 mi Calm Calm - N/A   Clear
7:33 AM 53.6 °F 44.6 °F 72% 29.98 in 10.0 mi NNE 3.5 mph - N/A   Clear
7:53 AM 53.6 °F 44.6 °F 72% 29.98 in 10.0 mi Calm Calm - N/A   Clear
8:13 AM 55.4 °F 44.6 °F 67% 29.99 in 10.0 mi NE 4.6 mph - N/A   Clear
8:33 AM 55.4 °F 44.6 °F 67% 30.00 in 10.0 mi Calm Calm - N/A   Clear
8:53 AM 57.2 °F 44.6 °F 63% 30.00 in 10.0 mi NNW 3.5 mph - N/A   Clear
9:13 AM 57.2 °F 44.6 °F 63% 30.01 in 10.0 mi Calm Calm - N/A   Clear
9:33 AM 59.0 °F 44.6 °F 59% 30.01 in 10.0 mi NW 4.6 mph - N/A   Clear
9:53 AM 57.2 °F 42.8 °F 59% 30.01 in 10.0 mi Calm Calm - N/A   Clear
10:13 AM 59.0 °F 44.6 °F 59% 30.01 in 10.0 mi Calm Calm - N/A   Clear
10:33 AM 59.0 °F 44.6 °F 59% 30.02 in 10.0 mi Calm Calm - N/A   Clear
10:53 AM 60.8 °F 44.6 °F 55% 30.01 in 10.0 mi WNW 6.9 mph - N/A   Clear
11:13 AM 62.6 °F 42.8 °F 48% 30.02 in 10.0 mi WNW 3.5 mph - N/A   Clear
11:33 AM 62.6 °F 42.8 °F 48% 30.01 in 10.0 mi NNW 3.5 mph - N/A   Clear
11:53 AM 62.6 °F 42.8 °F 48% 30.01 in 10.0 mi West 3.5 mph - N/A   Clear
12:13 PM 62.6 °F 44.6 °F 52% 30.01 in 10.0 mi WNW 4.6 mph - N/A   Scattered Clouds
12:33 PM 64.4 °F 44.6 °F 49% 30.01 in 10.0 mi NW 6.9 mph - N/A   Scattered Clouds
12:53 PM 64.4 °F 44.6 °F 49% 30.01 in 10.0 mi WNW 5.8 mph - N/A   Mostly Cloudy
1:13 PM 64.4 °F 44.6 °F 49% 30.01 in 10.0 mi WNW 4.6 mph - N/A   Mostly Cloudy
1:33 PM 64.4 °F 44.6 °F 49% 30.01 in 10.0 mi WNW 4.6 mph - N/A   Scattered Clouds
1:54 PM 64.4 °F 44.6 °F 49% 30.00 in 10.0 mi Calm Calm - N/A   Scattered Clouds
2:13 PM 64.4 °F 44.6 °F 49% 30.00 in 10.0 mi NW 4.6 mph - N/A   Scattered Clouds
2:33 PM 66.2 °F 44.6 °F 46% 29.99 in 10.0 mi North 3.5 mph - N/A   Scattered Clouds
2:53 PM 64.4 °F 44.6 °F 49% 29.99 in 10.0 mi NNW 3.5 mph - N/A   Scattered Clouds
3:13 PM 66.2 °F 42.8 °F 43% 29.99 in 10.0 mi Calm Calm - N/A   Scattered Clouds
3:33 PM 64.4 °F 44.6 °F 49% 29.99 in 10.0 mi Calm Calm - N/A   Clear
3:53 PM 68.0 °F 44.6 °F 43% 29.98 in 10.0 mi North 3.5 mph - N/A   Clear
4:13 PM 64.4 °F 44.6 °F 49% 29.98 in 10.0 mi Calm Calm - N/A   Scattered Clouds
4:33 PM 64.4 °F 44.6 °F 49% 29.98 in 10.0 mi Calm Calm - N/A   Scattered Clouds
4:53 PM 68.0 °F 44.6 °F 43% 29.98 in 10.0 mi Calm Calm - N/A   Mostly Cloudy
5:13 PM 66.2 °F 42.8 °F 43% 29.98 in 10.0 mi Calm Calm - N/A   Mostly Cloudy
5:33 PM 64.4 °F 44.6 °F 49% 29.97 in 10.0 mi Calm Calm - N/A   Mostly Cloudy
5:53 PM 66.2 °F 44.6 °F 46% 29.98 in 10.0 mi Calm Calm - N/A   Scattered Clouds
6:13 PM 66.2 °F 44.6 °F 46% 29.97 in 10.0 mi Calm Calm - N/A   Clear
6:33 PM 66.2 °F 42.8 °F 43% 29.97 in 10.0 mi Calm Calm - N/A   Clear
6:53 PM 66.2 °F 44.6 °F 46% 29.97 in 10.0 mi Calm Calm - N/A   Clear
7:13 PM 64.4 °F 50.0 °F 59% 29.98 in 10.0 mi Calm Calm - N/A   Clear
7:33 PM 64.4 °F 48.2 °F 56% 29.98 in 10.0 mi Calm Calm - N/A   Clear
7:53 PM 62.6 °F 51.8 °F 68% 29.98 in 10.0 mi Calm Calm - N/A   Clear
8:13 PM 57.2 °F 50.0 °F 77% 29.98 in 10.0 mi Calm Calm - N/A   Clear
8:33 PM 55.4 °F 48.2 °F 77% 29.98 in 10.0 mi Calm Calm - N/A   Clear
8:53 PM 55.4 °F 48.2 °F 77% 29.98 in 10.0 mi Calm Calm - N/A   Clear
9:13 PM 53.6 °F 48.2 °F 82% 29.98 in 10.0 mi Calm Calm - N/A   Clear
9:33 PM 51.8 °F 46.4 °F 82% 29.99 in 10.0 mi Calm Calm - N/A   Clear
9:53 PM 51.8 °F 46.4 °F 82% 29.99 in 10.0 mi Calm Calm - N/A   Clear
10:13 PM 51.8 °F 46.4 °F 82% 29.99 in 10.0 mi Calm Calm - N/A   Clear
10:33 PM 51.8 °F 46.4 °F 82% 29.99 in 10.0 mi Calm Calm - N/A   Clear
10:53 PM 50.0 °F 46.4 °F 87% 29.99 in 10.0 mi Calm Calm - N/A   Clear
11:13 PM 50.0 °F 46.4 °F 87% 30.00 in 10.0 mi Calm Calm - N/A   Clear
11:33 PM 50.0 °F 46.4 °F 87% 29.99 in 10.0 mi Calm Calm - N/A   Clear
11:53 PM 48.2 °F 44.6 °F 87% 30.00 in 10.0 mi Calm Calm - N/A   Clear